Location: Cran-Gévrier
(45.9039°N, 6.1012°E)
Time: 04:36:33
(UTC+00:00)

CZ-4 R/B - Pass Details

Date: 09 February 2023
Orbit: 577 x 586 km, 97.7° (Epoch: 29 March)

Event Time Altitude Azimuth Distance (km) Brightness Sun altitude
Rises 17:50:09 0° 167° (SSE) 2,784 7.9 -10.5°
Reaches altitude 10° 17:52:17 10° 168° (SSE) 1,891 7.0 -10.8°
Maximum altitude 17:56:24 85° 257° (WSW) 591 4.5 -11.5°
Drops below altitude 10° 18:00:33 10° 346° (NNW) 1,913 7.1 -12.3°
Sets 18:02:43 0° 347° (NNW) 2,819 8.0 -12.6°
